Погода Верхотурье

Погода Верхотурье : погода сейчас, прогноз погоды и архив. Всё, что Вы хотите узнать о погоде Верхотурье!

Хотите узнать прогноз погоды Верхотурье? Тогда Вам сюда: Погода Верхотурье

Поиск расширенной информации на нашем сайте:

Другие новости

Новости СМИ2

Главная страница сайта

Новости сайта

03.07.2017

Напоминаем, что на нашем специализированном сайте Метеоцентр.Азия вы можете получить высокодетализированные автоматические прогнозы погоды по пунктам России, СНГ и мира в авиационном формате (включающие направление и скорость ветра, видимость, явления погоды, количество и форму облачности, нижнюю и верхнюю границу облачности).


Погода Верхотурье - сегодня

Время (UTC), дата Ветер
(°,м/с) 
Видим.   Явления Облачность Т
(°С)
Тd
(°С)
f(%) Тe
(°С)
Pmin
(гПа)
dP
(гПа)
Po
(мм)
O2
(г/м3)
Тmin Tmax R s Состояние
почвы
21 19.02.18 180 (Ю) 4000 м  слаб. снег  10/5 600 м средняя 
[Sc|As op]
-6.6 -9 83 -8  1022.7  -1.2  755  313           
00 20.02.18 170 (Ю) н/о    н/о 
-7.6 -9.3 88 -9  1021.8  -0.9  754  314           
03 20.02.18 170 (Ю) 10 км  слаб. снег  10/3 600 м средняя, верхняя 
[Sc|Ac und|Cs]
-8.9 -10.4 89 -11  1020.8  -1.1  753  315  -8.9    0.6  19  равномерный
сухой снег
100% 
09 20.02.18 090 (В) 10 км  слаб. снег  10/3 300 м средняя 
[Frnb|As trans]
-5.2 -7.5 84 -7  1017.8  -1.3  751  309           
12 20.02.18 100 (В) 10 км  слаб. ливневой снег  10/5 300 м кучево-дожд., средняя, верхняя 
[Cb calv|Ac trans|Cs]
-4.9 -7.6 81 -6  1016  -1.8  750  308           
18 20.02.18 100 (В) 4000 м  слаб. ливневой снег  10/6 300 м кучево-дожд., средняя 
[Cb calv|Ac As]
-8.3 -9.9 88 -8  1013.9  -1.3  748  312           
21 20.02.18 090 (В) 4000 м  слаб. снег{ливн. осадки}  10/5 300 м средняя 
[Frnb|As trans]
-9.3 -10.9 88 -9  1013  -0.9  748  313           
00 21.02.18 тихо ()   4000 м  слаб. снег{ливн. осадки}  10/8 300 м средняя 
[Frnb|As trans]
-11.1 -12.6 89 -11  1012.5  -0.6  747  315           
03 21.02.18 250 (З) 10 км  слаб. снег  10/3 300 м средняя 
[Frnb|As op]
-12.5 -14.3 86 -12  1012.2  -0.3  747  317  -14.8    22  равномерный
сухой снег
100% 
06 21.02.18 330 (СЗ) 10 км  слаб. снег  10/0 средняя 
[Ac As]
-12.4 -15.3 79 -16  1012.7  0.5  747  317           
09 21.02.18 320 (СЗ) 10 км  слаб. снег  10/0 средняя 
[As trans]
-11.9 -15.6 74 -15  1012.9  0.2  747  316           
12 21.02.18 330 (СЗ) 10 км  слаб. снег  10/0 средняя 
[Ac As]
-11.9 -15.4 75 -12  1012.9  747  316           
18 21.02.18 310 (СЗ) 10 км  снежные кристаллы  10/0 верхняя 
[Cs]
-19 -21.3 82 -19  1014.4  0.5  748  326           
21 21.02.18 320 (СЗ) 20000 м  {снег}  10/0 верхняя 
[Cs]
-20.5 -23.1 80 -21  1015  0.5  748  328           
00 22.02.18 300 (СЗ) 20000 м  {снег}  10/0 верхняя 
[Cs]
-22.7 -25.7 76 -23  1015.4  0.3  749  331           
03 22.02.18 310 (СЗ) 10 км    10/0 верхняя 
[Cs]
-26 -29.1 75 -27  1015.5  -0.1  749  335  -26.3    0.3  22  равномерный
сухой снег
100% 
06 22.02.18 тихо ()   10 км  слаб. снег  10/0 верхняя 
[Cs]
-19.4 -22.6 76 -19  1015.1  749  326           
09 22.02.18 120 (ЮВ) 20000 м  {снег}  3/0 верхняя 
[Ci fib]
-17.4 -22.5 64 -18  1014.4  -0.6  748  324           
12 22.02.18 тихо ()   10 км  слаб. снег  10/0 средняя 
[As trans]
-16.4 -20.2 72 -16  1014.5  0.2  748  322           
18 22.02.18 тихо ()   10 км  слаб. снег  10/0 верхняя 
[Cs]
-21.5 -24.2 79 -22  1016.5  1.2  750  330           
21 22.02.18 300 (СЗ) 4000 м  слаб. снег  10/0 верхняя 
[Cs]
-23.5 -26.3 78 -24  1017.9  1.2  750  333           
00 23.02.18 тихо ()   20000 м  ледяные иглы{снег}  4/0 верхняя 
[Ci fib]
-27.4 -30.7 73 -27  1018.9  0.7  751  338           
03 23.02.18 тихо ()   20000 м  {снег}  3/0 верхняя 
[Ci sp]
-29.7 -33.2 72 -30  1019.7  0.6  751  342  -29.7    0.3  23  равномерный
сухой снег
100% 
09 23.02.18 240 (ЮЗ) 20000 м  {снег}  3/0 верхняя 
[Ci fib]
-15.3 -21.9 57 -15  1019.6  0.3  752  323           
12 23.02.18 тихо ()   20000 м  {снег}  1/0 верхняя 
[Ci fib]
-15.5 -21.2 62 -16  1019.7  0.1  752  323           
Время (UTC), дата Ветер
(°,м/с) 
Видим.   Явления Облачность Т
(°С)
Тd
(°С)
f(%) Тe
(°С)
Pmin
(гПа)
dP
(гПа)
Po
(мм)
O2
(г/м3)
Тmin Tmax R s Состояние
почвы

Для получения пояснительной информации подведите курсор к названию столбца.

ПОГОДА Верхотурье - архив

Всё, что Вы хотите узнать о погоде Верхотурье - удобно и подробно!

Выберите нужную дату (начиная с 1 января 2015* года) и нажмите кнопку "Найти".
Будут отображены архивные сводки погоды по пункту Верхотурье, начиная с указанной даты.


Отображать данные в формате CSV (для использования в таблицах Excel)


Внимание! Наш архив погоды предназначен исключительно для личного некоммерческого использования в познавательных целях. Если Вам необходимы официальные справки о состоянии погоды (для производственных, юридических, коммерческих и т.п. целей), обращайтесь в органы Росгидромета.

*Примечание: данная дата относится к архиву по метеостанциям СССР (Россия, СНГ, Балтия).
Архив по метеостанциям Зарубежной Европы и Азии (кроме Китая) хранится 10 дней, по другим регионам земного шара (Китай, Африка, Америка, Австралия, Океания) - 1 день.

Верхотурье - район местоположения метеостанции


Название, широта, долгота, высота метеостанции:
Верхотурье 58.9°ш. 60.8°д. 125 м над ур. моря [Российская Федерация]

Дополнительная информация

В oтличие oт бoльшинства пoгoдных сайтoв мы публикуем пoдрoбную метеoинфoрмацию в детальнoм прoфессиoнальнoм фoрмате.

Характеристики температуры и влажнoсти вoздуха измеряются на высoте 2 м в тени вдали oт зданий и деревьев.
Скoрoсть ветра измеряется на высoте 10 м (на урoвне рoста челoвека скoрoсть ветра ниже в 1.5-2 раза). Если метеoстанция нахoдится в гoрoде или в лесу, тo скoрoсть ветра занижена на 2-4 м/с пo сравнению с oткрытым местoм. Скoрoсть ветра над акватoриями крупных рек и oзёр, а также на вершинах хoлмoв на 2-5 м/с выше, чем в oбычных услoвиях.
Атмoсфернoе давление в разных тoчках местнoсти мoжет значительнo oтличаться oт давления на метеoстанции, в зависимoсти oт услoвий рельефа (при пoдъёме на 10 м давление пoнижается примернo на 1 мм рт.ст.).